Location: West Cummington
(42.4920°N, 72.9680°W)
Time: 03:23:10
(UTC-05:00)

Cosmos 1703 Rocket - Visible Passes

Search period start: 26 January 2015 00:00
Search period end: 05 February 2015 00:00
Orbit: 607 x 635 km, 82.5° (Epoch: 24 January)

Date Brightness Start Highest point End Pass type
(mag) Time Alt. Az. Time Alt. Az. Time Alt. Az.
26 Jan 7.0 04:43:28 10° E 04:44:24 11° E 04:45:36 10° ENE visible
26 Jan 3.5 06:17:28 10° SSW 06:21:48 65° W 06:26:11 10° N visible
26 Jan 6.3 18:04:08 10° NW 18:07:38 22° W 18:11:02 10° SW visible
27 Jan 6.2 04:58:58 10° SE 05:02:07 20° E 05:05:24 10° NE visible
27 Jan 4.2 06:35:51 10° SW 06:39:51 34° WNW 06:43:52 10° N visible
27 Jan 6.9 18:23:32 10° WNW 18:25:22 12° W 18:26:59 10° WSW visible
28 Jan 5.1 05:15:54 10° SSE 05:19:54 37° E 05:23:59 10° NNE visible
29 Jan 3.8 05:33:25 10° S 05:37:45 73° E 05:42:10 10° NNE visible
30 Jan 6.8 04:16:37 10° ESE 04:18:16 12° E 04:20:09 10° ENE visible
30 Jan 3.5 05:51:25 10° SSW 05:55:43 58° W 06:00:05 10° N visible
30 Jan 6.5 17:38:13 10° NW 17:41:31 20° W 17:44:43 10° SW visible
31 Jan 6.0 04:32:37 10° SE 04:35:59 23° E 04:39:29 10° NE visible
31 Jan 4.3 06:09:52 10° SW 06:13:47 31° WNW 06:17:42 10° NNW visible
31 Jan 7.1 17:58:04 10° WNW 17:59:15 11° W 18:00:08 10° W visible
01 Feb 4.8 04:49:41 10° SSE 04:53:47 42° E 04:57:59 10° NNE visible
01 Feb 5.0 06:28:59 10° WSW 06:32:00 17° WNW 06:34:54 10° NNW visible
02 Feb 3.6 05:07:17 10° S 05:11:39 82° E 05:16:06 10° N visible
03 Feb 6.6 03:49:59 10° ESE 03:52:08 14° E 03:54:28 10° NE visible
03 Feb 3.6 05:25:21 10° SSW 05:29:37 52° WNW 05:33:58 10° N visible
04 Feb 5.7 04:06:18 10° SE 04:09:51 25° E 04:13:33 10° NNE visible
04 Feb 4.4 05:43:54 10° SW 05:47:43 28° WNW 05:51:32 10° NNW visible
